     2              OBSERVATION DATA    GPS                 RINEX VERSION / TYPE
TRRINEXO-V2.3.1-LH UCLA/SCEC 28-FEB-1994                    PGM / RUN BY / DATE
                                                            COMMENT
Original Marker Name: PTDU                                  COMMENT
Campaign Name: Northridge 1994                              COMMENT
4-Character Station Name: PTDU                              COMMENT
6-Character Antenna Code: TRMSST                            COMMENT
Vertical Measurement Point: BGP                             COMMENT
Vertical Offset to Rinex Ref. Point: 0.0597                 COMMENT
Radial Measurement Point: NGP                               COMMENT
Radial Offset to Rinex Ref. Point: 0.2334                   COMMENT
Antenna Height from Field Measurement: 1.3840 m             COMMENT
Original XYZ: -2550525.0563 -4638141.3187 3546575.6047      COMMENT
New XYZ position is based on association with SCEC monument COMMENT
E1C7Y0N7+0011. Position of that monument is believed to be  COMMENT
valid to within 1 m horizontally; vertical accuracy         COMMENT
should be no worse than 3-times this value.                 COMMENT
                                                            COMMENT
Revised Rinex header created by UCSD GPS archive for        COMMENT
GSAC on 06-Apr-1999 (1999:096) 03:38:55 GMT                 COMMENT
For assistance contact dagnew@ucsd.edu or hjohnson@ucsd.edu COMMENT
                                                            COMMENT
POINT DUME RESET 1947                                       MARKER NAME
X. GE UCLA                                                  OBSERVER / AGENCY
930 TRIMBLE 4000 SST 4.81                                   REC # / TYPE / VERS
68262 TR 4000SST L1/L2 GEO                                  ANT # / TYPE
 -2550550.0000 -4638153.0000  3546607.0000                  APPROX POSITION XYZ
        1.3045        0.0000        0.0000                  ANTENNA: DELTA H/E/N
     1     2     0                                          WAVELENGTH FACT L1/2
     3    C1    L1    L2                                    # / TYPES OF OBSERV
    30                                                      INTERVAL
  1994     2    18    22    35   30.000000                  TIME OF FIRST OBS
  1994     2    18    22    59   60.000000                  TIME OF LAST OBS
     0                                                      # OF SATELLITES
                                                            END OF HEADER
 94  2 18 22 35 30.0000000  0  7 19  2  7 16 18 27 31
  20807930.781          -0.81717
  21911937.078          -0.13016
  24517198.633          -0.49714
  23849624.781          -0.59214
  22009928.031          -0.11116
  20589600.539          -0.64617
  22340742.938          -0.95216
 94  2 18 22 36  0.0000000  0  7 19  2  7 16 18 27 31
  20801759.531      -32422.151 7        -0.21419
  21892697.555     -101101.265 6        -0.26818
  24487413.711     -156525.969 4        -0.26711
  23840883.297      -45919.053 4        -0.47514
  22017828.914       41510.823 6        -0.15017
  20574453.602      -79603.548 7        -0.04219
  22340372.555       -1945.291 6        -0.23217
 94  2 18 22 36 30.0000000  0  7 19  2  7 16 18 27 31
  20795614.984      -64711.797 7    -25160.972 9
  21873497.734     -201988.183 6    -78613.418 8
  24457614.867     -313124.483 4   -122024.802 2
  23832231.109      -91412.299 4    -35449.760 4
  22025770.352       83246.314 6     32520.985 7
  20559329.078     -159078.535 7    -61928.578 9
  22340094.609       -3411.165 6     -1142.487 7
 94  2 18 22 37  0.0000000  0  7 19  2  7 16 18 27 31
  20789506.383      -96821.767 7    -50181.721 9
  21854347.500     -302621.718 6   -157029.120 8
  24427802.258     -469779.106 4   -244093.088 2
  23823657.242     -136427.175 4    -70526.303 3
  22033766.008      125264.260 6     65262.210 7
  20544241.023     -238379.170 7   -123721.264 9
  22339914.562       -4345.493 6     -1870.533 6
 94  2 18 22 37 29.9990000  0  7 19  2  7 16 18 27 31
  20783439.995     -128698.967 7    -75021.092 9
  21835249.847     -402970.790 6   -235223.168 8
  24397984.440     -626464.550 3   -366185.330 1
  23815194.042     -180922.784 4   -105198.224 5
  22041818.901      167584.428 6     98238.933 6
  20529190.214     -317476.090 7   -185355.195 9
  22339839.690       -4737.870 6
 94  2 18 22 37 59.9990000  0  7 19  2  7 16 18 27 31
  20777424.050     -160319.891 7    -99660.763 9
  21816209.300     -503043.151 6   -313201.588 8
  24368163.847     -783188.101 3   -488307.305 2
  23806827.589     -224889.245 4   -139457.801 4
  22049932.089      210226.148 6    131466.213 6
  20514176.675     -396357.798 7   -246821.436 9
  22339872.480       -4575.041 6
 94  2 18 22 38 29.9990000  0  7 19  2  7 16 18 27 31
  20771456.261     -191673.469 7   -124092.121 9
  21797216.519     -602852.929 6   -390975.407 8
  24338331.323     -939947.569 3   -610457.262 2
  23798561.589     -268324.756 4   -173303.661 3
  22058108.776      253189.391 6    164944.029 6
  20499208.667     -475017.976 7   -308115.055 9
  22340006.425       -3869.685 6     -1499.794 6
 94  2 18 22 38 59.9990000  0  7 19  2  7 16 18 27 31
  20765540.519     -222753.583 7   -148310.386 9
  21778274.175     -702388.895 6   -468535.858 8
  24308501.815    -1096694.577 3   -732597.541 1
  23790391.698     -311233.199 4   -206738.824 4
  22066344.440      296473.124 6    198671.583 6
  20484288.792     -553431.890 7   -369216.784 9
  22340243.222       -2624.330 6      -529.393 6
 94  2 18 22 39 29.9990000  0  7 19  2  7 16 18 27 31
  20759679.675     -253566.821 7   -172320.699 9
  21759383.237     -801653.207 6   -545884.638 8
  24278684.136    -1253398.966 3   -854704.593 2
  23782327.769     -353629.125 4   -239774.619 4
  22074641.198      340064.546 6    232638.891 6
  20469415.386     -631591.781 7   -430120.578 9
  22340580.542        -837.392 6       863.026 6
 94  2 18 22 39 59.9990000  0  7 19  2  7 16 18 27 31
  20753863.917     -284121.712 7   -196129.697 9
  21740546.448     -900652.258 6   -623026.718 8
  24248871.690    -1410051.861 3   -976771.546 2
  23774355.526     -395535.129 4   -272428.658 2
  22082994.065      383965.717 6    266847.557 6
  20454588.644     -709497.257 7   -490826.118 9
  22341025.784        1501.882 6      2685.826 6
 94  2 18 22 40 29.9990000  0  7 19  2  7 16 18 27 31
  20748100.487     -314409.945 7   -219730.913 9
  21721761.933     -999365.688 6   -699946.234 8
  24219081.144    -1566619.107 3  -1098771.731 1
  23766466.362     -436946.407 4   -304697.178 4
  22091410.159      428185.274 6    301304.324 6
  20439816.253     -787128.052 7   -551317.623 9
  22341578.253        4401.649 6      4945.384 6
 94  2 18 22 40 59.9990000  0  7 19  2  7 16 18 27 31
  20742381.323     -344460.968 7   -243147.297 9
  21703029.276    -1097794.507 6   -776643.983 8
  24189295.081    -1723121.538 3  -1220721.455 4
  23758683.847     -477875.816 4   -336590.238 4
  22099878.987      472696.538 6    335988.383 6
  20425096.644     -864490.157 7   -611599.766 9
  22342233.683        7845.527 6      7628.905 6
 94  2 18 22 41 29.9990000  0  7 19  2  7 16 18 27 31
  20736714.612     -374240.215 7   -266351.898 9
  21684359.050    -1195921.278 6   -853106.369 8
  24159527.175    -1879570.159 3  -1342629.269 3
  23750993.823     -518286.018 4   -368078.717 4
  22108409.073      517513.574 6    370910.711 6
  20410424.565     -941579.449 7   -671669.322 9
  22342996.331       11846.619 6     10746.621 6
 94  2 18 22 41 59.9990000  0  7 19  2  7 16 18 27 31
  20731101.292     -403742.242 7   -289340.484 9
  21665747.167    -1293725.792 6   -929317.643 8
  24129765.081    -2035966.867 3  -1464496.638 4
  23743408.183     -558156.568 4   -399146.700 3
  22116998.261      562652.893 6    406084.165 6
  20395809.019    -1018386.708 7   -731519.120 9
  22343866.776       16404.250 6     14298.005 6
 94  2 18 22 42 29.9990000  0  7 19  2  7 16 18 27 31
  20725535.378     -432989.226 7   -312130.333 9
  21647196.964    -1391199.379 6  -1005271.048 8
  24100008.214    -2192336.963 4  -1586343.306 4
  23735925.761     -597474.664 4   -429784.157 3
  22125645.651      608098.107 6    441495.982 6
  20381244.948    -1094926.446 7   -791160.450 9
  22344832.612       21512.435 6     18278.384 6
 94  2 18 22 42 59.9990000  0  7 19  2  7 16 18 27 31
  20720019.534     -461971.882 7   -334714.213 9
  21628718.097    -1488320.197 6  -1080949.569 8
  24070259.745    -2348671.941 4  -1708162.652 3
  23728556.409     -636221.361 4   -459976.387 4
  22134357.058      653871.646 6    477163.628 6
  20366730.237    -1171187.922 7   -850584.960 9
  22345918.065       27189.448 6     22702.016 6
 94  2 18 22 43 29.9990000  0  7 19  2  7 16 18 27 31
  20714554.690     -490695.405 7   -357096.171 9
  21610299.831    -1585094.751 6  -1156358.273 8
  24040519.073    -2504961.608 5  -1829946.714 4
  23721280.284     -674425.150 4   -489745.576 4
  22143132.034      699982.037 6    513093.755 6
  20352270.104    -1247186.312 7   -909804.462 9
  22347100.972       33424.476 6     27560.466 6
 94  2 18 22 43 59.9990000  0  7 19  2  7 16 18 27 31
  20709134.401     -519177.449 7   -379289.960 9
  21591952.222    -1681522.821 6  -1231496.979 8
  24010787.065    -2661189.818 5  -1951682.891 4
  23714110.769     -712111.889 4   -519111.878 4
  22151968.409      746433.200 6    549289.430 6
  20337857.995    -1322916.512 7   -968814.988 9
  22348395.690       40220.266 6     32855.871 6
 94  2 18 22 44 29.9990000  0  7 19  2  7 16 18 27 31
  20703764.222     -547398.576 7   -401280.439 9
  21573664.651    -1777617.925 6  -1306376.235 8
  23981074.644    -2817345.945 5  -2073362.880 2
  23707038.198     -749285.252 4   -548078.132 5
  22160871.737      793216.321 6    585743.764 6
  20323499.784    -1398377.954 7  -1027616.085 9
  22349792.190       47570.286 6     38583.130 6
 94  2 18 22 44 59.9990000  0  7 19  2  7 16 18 27 31
  20698445.331     -575349.859 7   -423060.648 9
  21555435.026    -1873406.155 6  -1381016.372 8
  23951376.339    -2973412.783 5  -2194973.323 4
  23700057.503     -785955.369 4   -576652.248 5
  22169838.839      840329.796 6    622455.515 6
  20309192.128    -1473565.615 7  -1086203.850 9
  22351297.190       55454.837 6     44726.924 6
 94  2 18 22 45 29.9990000  0  7 19  2  7 16 18 27 31
  20693181.448     -603009.777 7   -444613.825 9
  21537269.151    -1968879.759 6  -1455411.346 8
  23921697.565    -3129377.436 5  -2316504.122 4
  23693178.542     -822111.846 4   -604826.121 4
  22178867.511      887780.164 6    659429.786 6
  20294936.378    -1548469.760 7  -1144570.695 9
  22352899.644       63885.916 6     51296.579 6
 94  2 18 22 45 59.9990000  0  7 19  2  7 16 18 27 31
  20687968.769     -630396.748 7   -465954.316 9
  21519153.948    -2064064.983 6  -1529581.599 8
  23892032.745    -3285270.359 5  -2437978.988 4
  23686396.722     -857756.510 4   -632601.199 4
  22187954.417      935529.117 6    696636.705 6
  20280737.331    -1623099.758 7  -1202723.911 9
  22354607.167       72845.850 6     58278.327 6
 94  2 18 22 46 29.9990000  0  7 19  2  7 16 18 27 31
  20682816.628     -657484.342 7   -487061.529 9
  21501099.597    -2158940.163 6  -1603510.264 8
  23862380.722    -3441077.410 5  -2559386.956 4
  23679715.292     -892869.094 4   -659961.651 5
  22197101.175      983595.844 6    734091.248 6
  20266591.933    -1697430.148 7  -1260643.672 9
  22356413.128       82357.241 6     65689.779 6
 94  2 18 22 46 59.9990000  0  7 19  2  7 16 18 27 31
  20677715.995     -684278.177 7   -507939.835 9
  21483110.847    -2253488.159 6  -1677183.983 8
  23832751.815    -3596790.462 5  -2680721.669 3
  23673131.120     -927450.713 4   -686908.365 4
  22206311.636     1031993.377 6    771803.569 6
  20252505.214    -1771443.171 7  -1318316.132 9
  22358330.401       92435.980 6     73543.332 6
 94  2 18 22 47 29.9990000  0  7 19  2  7 16 18 27 31
  20672674.417     -710772.930 7   -528585.089 9
  21465180.362    -2347698.180 6  -1750594.340 8
  23803134.808    -3752408.761 5  -2801982.559 3
  23666655.104     -961497.387 4   -713438.262 5
  22215581.464     1080714.618 6    809768.122 6
  20238485.784    -1845124.741 7  -1375730.317 9
  22360359.948      103089.726 6     81844.937 6
 94  2 18 22 47 59.9990000  0  7 19  2  7 16 18 27 31
  20667688.089     -736978.484 7   -549005.000 9
  21447314.175    -2441582.211 6  -1823750.683 8
  23773543.706    -3907930.529 5  -2923168.186 3
  23660274.347     -995013.673 4   -739554.831 4
  22224913.144     1129741.456 6    847970.807 6
  20224527.136    -1918481.678 7  -1432891.541 9
  22362495.136      114300.949 6     90580.931 6
 94  2 18 22 48 29.9990000  0  7 19  2  7 16 18 27 31
  20662759.292     -762874.816 7   -569183.957 9
  21429513.753    -2535137.707 6  -1896651.020 8
  23743970.683    -4063335.359 5  -3044262.733 4
  23654003.894    -1027995.087 4   -765254.643 4
  22234300.065     1179074.876 6    886412.389 6
  20210626.792    -1991524.958 7  -1489808.353 9
  22364730.776      126064.625 6     99747.419 6
 94  2 18 22 48 59.9990000  0  7 19  2  7 16 18 27 31
  20657895.753     -788437.525 7   -589102.944 9
  21411775.019    -2628348.056 6  -1969282.423 8
  23714422.956    -4218602.140 5  -3165249.674 5
  23647832.917    -1060410.036 4   -790513.048 4
  22243748.792     1228726.670 6    925102.052 6
  20196789.472    -2064242.967 7  -1546471.714 9
  22367077.894      138390.238 6    109351.776 6
 94  2 18 22 49 29.9990000  0  7 19  2  7 16 18 27 31
  20653094.589     -813663.623 7   -608759.640 9
  21394101.706    -2721216.355 6  -2041647.293 8
  23684899.972    -4373737.601 4  -3286134.287 5
  23641772.925    -1092261.507 4   -815332.377 3
  22253256.901     1278688.516 6    964033.313 6
  20183011.761    -2136654.386 7  -1602896.168 9
  22369526.206      151265.083 6    119384.121 6
 94  2 18 22 49 59.9990000  0  7 19  2  7 16 18 27 31
  20648357.136     -838560.785 7   -628160.020 9
  21376498.167    -2813738.072 6  -2113742.103 8
  23655405.683    -4528747.153 4  -3406920.792 3
  23635816.042    -1123565.782 4   -839725.324 4
  22262822.269     1328963.797 6   1003208.820 6
  20169285.003    -2208777.269 7  -1659095.787 9
  22372080.558      164683.966 6    129840.377 6
 94  2 18 22 50 29.9990000  0  7 19  2  7 16 18 27 31
  20643687.136     -863097.824 7   -647279.784 9
  21358966.167    -2905873.960 6  -2185536.272 8
  23625937.870    -4683588.980 4  -3527576.628 3
  23629968.776    -1154292.960 4   -863668.596 2
  22272459.870     1379608.286 6   1042672.012 6
  20155624.003    -2280560.835 7  -1715031.014 9
  22374745.417      178693.290 6    140756.723 6
 94  2 18 22 50 59.9990000  0  7 19  2  7 16 18 27 31
  20639087.151     -887275.952 7   -666119.875 9
  21341509.675    -2997592.708 6  -2257005.396 8
  23596510.425    -4838247.746 5  -3648089.815 4
  23624232.823    -1184432.323 4   -887153.825 3
  22282173.526     1430653.980 6   1082447.817 6
  20142036.261    -2351965.595 7  -1770671.065 9
  22377532.104      193324.514 6    152157.662 6
 94  2 18 22 51 29.9990000  0  7 19  2  7 16 18 27 31
  20634543.417     -911153.265 7   -684725.579 9
  21324126.675    -3088936.963 6  -2328182.708 8
  23567105.589    -4992762.071 5  -3768490.454 5
  23618595.034    -1214044.974 4   -910228.636 3
  22291953.472     1482044.130 6   1122492.044 6
  20128515.183    -2423034.984 7  -1826049.786 9
  22380424.550      208539.329 6    164013.355 6
 94  2 18 22 51 59.9990000  0  7 19  2  7 16 18 27 31
  20630051.269     -934760.792 7   -703121.053 9
  21306807.948    -3179945.698 6  -2399098.578 8
  23537725.769    -5147140.241 5  -3888785.017 4
  23613060.026    -1243156.124 4   -932912.667 4
  22301792.315     1533747.124 6   1162780.039 6
  20115050.722    -2493782.938 7  -1881178.037 9
  22383429.862      224317.957 6    176308.372 6
 94  2 18 22 52 29.9990000  0  7 19  2  7 16 18 27 31
  20625611.511     -958091.297 7   -721300.662 9
  21289551.878    -3270632.025 6  -2469763.223 8
  23508376.222    -5301374.362 5  -4008967.340 4
  23607615.097    -1271761.520 4   -955202.593 4
  22311687.573     1585751.685 6   1203303.025 6
  20101649.573    -2564203.167 7  -1936050.920 9
  22386538.964      240656.842 6    189039.956 6
 94  2 18 22 52 59.9990000  0  7 19  2  7 16 18 27 31
  20621228.300     -981121.139 7   -739245.999 9
  21272359.128    -3360990.153 6  -2540172.122 8
  23479054.230    -5455461.021 5  -4129034.752 3
  23602270.128    -1299856.167 4   -977094.532 4
  22321639.034     1638048.153 6   1244053.468 6
  20088313.222    -2634286.622 7  -1990661.386 9
  22389752.378      257550.128 6    202203.532 6
 94  2 18 22 53 29.9980000  0  7 19  2  7 16 18 27 31
  20616911.584    -1003813.757 7   -756928.549 9
  21255228.318    -3451013.835 6  -2610320.413 8
  23449768.506    -5609369.188 5  -4248963.081 5
  23597022.850    -1327416.202 4   -998569.909 3
  22331649.240     1690646.044 6   1285038.787 6
  20075042.670    -2704016.640 7  -2044996.447 9
  22393069.818      274993.624 6    215795.839 6
 94  2 18 22 53 59.9980000  0  7 19  2  7 16 18 27 31
  20612658.639    -1026157.631 7   -774339.357 9
  21238157.717    -3540715.926 6  -2680218.109 8
  23420512.092    -5763111.364 5  -4368762.068 3
  23591883.365    -1354433.392 4  -1019622.271 4
  22341716.639     1743557.860 6   1326268.709 6
  20061842.014    -2773393.869 7  -2099056.608 9
  22396492.850      292966.186 6    229800.407 6
 94  2 18 22 54 29.9980000  0  7 19  2  7 16 18 27 31
  20608473.975    -1048152.337 7   -791478.082 9
  21221149.740    -3630085.839 6  -2749856.959 9
  23391282.115    -5916711.535 5  -4488450.418 5
  23586844.576    -1380911.923 4  -1040254.916 4
  22351844.147     1796779.469 6   1367740.039 6
  20048707.209    -2842417.649 7  -2152841.352 9
  22400009.170      311447.814 6    244201.654 6
 94  2 18 22 54 59.9980000  0  7 19  2  7 16 18 27 31
  20604349.740    -1069822.619 7   -808364.019 9
  21204208.443    -3719116.857 6  -2819231.739 8
  23362076.873    -6070187.339 5  -4608041.817 5
  23581904.912    -1406856.558 4  -1060471.527 4
  22362032.357     1850308.087 6   1409450.603 6
  20035640.045    -2911092.986 7  -2206354.588 9
  22403621.053      330437.890 6    258999.089 6
 94  2 18 22 55 29.9980000  0  7 19  2  7 16 18 27 31
  20600284.482    -1091188.350 7   -825012.634 9
  21187333.186    -3807803.324 6  -2888338.037 8
  23332895.576    -6223547.338 5  -4727542.975 5
  23577072.154    -1432268.958 4  -1080273.411 3
  22372274.178     1904129.219 6   1451389.092 6
  20022631.529    -2979442.011 7  -2259613.549 9
  22407332.764      349940.965 6    274196.266 6
 94  2 18 22 55 59.9980000  0  7 19  2  7 16 18 27 31
  20596274.193    -1112256.118 7   -841429.070 9
  21170523.623    -3896142.552 6  -2957173.754 8
  23303731.889    -6376790.587 5  -4846953.153 5
  23572334.170    -1457163.710 4  -1099671.934 3
  22382568.014     1958231.361 6   1493546.554 6
  20009685.826    -3047466.836 7  -2312619.886 9
  22411146.646      369975.321 6    289807.417 6
 94  2 18 22 56 29.9980000  0  7 19  2  7 16 18 27 31
  20592321.459    -1133034.776 7   -857620.234 9
  21153779.826    -3984121.233 7  -3025728.530 8
  23274595.662    -6529896.528 5  -4966256.330 5
  23567693.670    -1481547.848 5  -1118672.564 4
  22392916.451     2012609.317 6   1535918.935 6
  19996801.404    -3115174.860 7  -2365379.376 9
  22415065.076      390572.842 6    305857.403 6
 94  2 18 22 56 59.9980000  0  7 19  2  7 16 18 27 31
  20588419.420    -1153538.248 7   -873596.967 9
  21137101.748    -4071759.670 7  -3094018.176 9
  23245492.639    -6682838.748 5  -5085431.957 4
  23563147.420    -1505436.510 5  -1137287.133 3
  22403313.092     2067242.883 6   1578490.497 6
  19983975.436    -3182589.626 7  -2417910.345 9
  22419089.068      411723.252 6    322338.216 6
 94  2 18 22 57 29.9980000  0  7 19  2  7 16 18 27 31
  20584570.709    -1173759.674 7   -889353.923 9
  21120487.092    -4159072.147 7  -3162053.838 9
  23216419.178    -6835623.145 5  -5204484.598 4
  23558687.787    -1528844.380 4  -1155527.046 3
  22413754.412     2122114.464 6   1621247.516 6
  19971198.420    -3249727.346 7  -2470225.438 9
  22423215.029      433393.058 6    339223.756 6
 94  2 18 22 57 59.9980000  0  7 19  2  7 16 18 27 31
  20580779.318    -1193689.935 7   -904883.993 9
  21103931.482    -4246064.658 7  -3229840.171 9
  23187376.154    -6988242.254 5  -5323408.431 4
  23554328.764    -1551770.216 4  -1173391.352 3
  22424246.311     2177242.865 6   1664204.648 6
  19958478.475    -3316578.454 7  -2522317.192 9
  22427432.678      455562.525 6    356498.645 6
 94  2 18 22 58 29.9980000  0  7 19  2  7 16 18 27 31
  20577043.264    -1213319.021 7   -920179.382 9
  21087440.014    -4332731.874 7  -3297373.030 9
  23158364.959    -7140699.972 5  -5442206.480 5
  23550062.514    -1574206.350 5  -1190874.071 4
  22434788.865     2232642.958 6   1707373.510 5
  19945813.826    -3383131.189 7  -2574176.458 9
  22431742.271      478209.860 6    374145.903 6
 94  2 18 22 58 59.9980000  0  7 19  2  7 16 18 27 31
  20573356.529    -1232689.387 7   -935273.174 9
  21070994.068    -4419155.735 7  -3364716.266 9
  23129366.092    -7293090.217 5  -5560951.962 5
  23545872.037    -1596223.724 5  -1208030.505 2
  22445369.053     2288253.858 6   1750706.620 6
  19933194.475    -3449444.605 7  -2625849.234 9
  22436125.982      501236.916 6    392089.027 6
 94  2 18 22 59 29.9980000  0  7 19  2  7 16 18 27 31
  20569717.342    -1251816.249 7   -950177.222 9
  21054590.982    -4505361.126 7  -3431889.266 9
  23100371.842    -7445452.369 5  -5679675.563 5
  23541751.928    -1617848.921 4  -1224881.318 3
  22455989.068     2344058.678 6   1794190.831 5
  19920619.389    -3515527.832 7  -2677342.649 9
  22440574.647      524622.542 6    410311.573 6
